Location: Hattorf
(51.6471°N, 10.2364°E)
Time: 19:12:28
(UTC+00:00)

Daily predictions for brighter satellites

Satellite Brightness Start Highest point End
(mag) Time Altitude Azimuth Time Altitude Azimuth Time Altitude Azimuth
USA 307 3.4 19:24:38 10° W 19:28:53 62° N 19:33:09 10° E
Cosmos 1842 Rocket 4.1 19:26:06 10° SSW 19:30:34 66° WNW 19:35:03 10° N
Ariane Rocket 3.2 19:25:38 10° S 19:30:42 76° WSW 19:35:47 10° NNW
Cosmos 2263 Rocket 3.4 19:28:17 10° SW 19:33:39 48° NW 19:39:07 10° NNE
Cosmos 1606 2.6 19:32:36 10° S 19:36:22 84° E 19:40:11 10° NNE
Cosmos 1844 Rocket 2.8 19:33:02 10° S 19:38:27 54° ESE 19:43:53 10° NE
SL-4 R/B 3.6 19:37:12 10° W 19:40:57 28° SW 19:44:55 10° SSE
Cosmos 1805 Rocket 3.6 19:37:11 10° N 19:41:33 89° ENE 19:45:54 10° S
SPOT 1/Viking Rocket 4.0 19:36:56 10° SE 19:41:57 50° ENE 19:46:59 10° N
USA 308 3.4 19:38:08 10° WNW 19:42:24 63° N 19:46:41 10° E
Cosmos 1386 Rocket 4.5 19:37:10 10° N 19:43:13 82° E 19:49:18 10° SSE
MetOp-B 4.3 19:37:56 10° SSE 19:43:14 64° ENE 19:48:33 10° N
X-37B 1.9 19:42:36 10° WSW 19:45:17 25° S 19:47:53 10° SE
ARIANE 5 R/B 3.4 19:43:22 10° SE 19:47:20 36° ENE 19:51:19 10° N
Cosmos 1633 Rocket 3.5 19:45:45 10° N 19:50:00 45° ENE 19:54:14 10° SSE
Cosmos 1745 Rocket 4.1 19:44:11 10° N 19:50:27 88° W 19:56:37 10° S
ERS-2 4.3 19:49:42 10° N 19:52:57 30° WNW 19:56:10 10° SW
Cosmos 1709 Rocket 4.1 19:47:11 10° N 19:53:17 62° ENE 19:59:19 10° SSE
SPOT 3 Rocket 3.6 19:50:18 10° SSE 19:55:28 85° WSW 20:00:40 10° NNW
Cosmos 1437 4.4 19:54:17 12° ESE 19:55:35 15° E 19:57:18 10° NE
Landsat 7 3.8 19:53:28 10° SSE 19:58:14 89° E 20:03:03 10° NNW
Cosmos 1844 3.7 19:53:00 10° SSW 19:58:39 63° ESE 20:04:15 10° NE
Cosmos 1812 4.4 19:56:30 11° SE 19:58:45 17° E 20:01:20 10° NE
Cosmos 1470 Rocket 4.5 19:54:58 10° N 19:59:05 35° ENE 20:02:47 12° SE
Cosmos 968 Rocket 3.6 19:54:10 10° SSW 19:59:25 89° WNW 20:04:42 10° NNE
ATLAS 5 CENTAUR R/B 2.4 19:54:11 10° NW 19:59:36 81° SW 20:05:41 12° SE
Cosmos 1328 Rocket 4.3 19:59:58 10° SSE 20:03:59 35° E 20:08:00 10° NNE
ATLAS 2AS CENTAUR R/B 3.9 19:57:25 10° NW 20:04:34 41° NNE 20:11:16 10° E
BREEZE M DEB (TANK) 4.3 20:01:15 10° WSW 20:05:27 70° SSE 20:20:28 10° E
Cosmos 1486 Rocket 4.1 20:01:36 10° SSW 20:06:57 87° ESE 20:12:20 10° NNE
Cosmos 1833 Rocket 3.2 20:03:37 10° NNW 20:09:08 49° NE 20:14:00 13° SE
IGS 5A 3.9 20:05:24 10° S 20:09:30 63° WSW 20:13:39 10° NNW
Meteor 1-26 Rocket 4.4 20:04:12 10° S 20:09:44 55° E 20:15:08 10° NNE
CARTOSAT-1 3.9 20:07:01 13° SE 20:10:45 52° ENE 20:14:58 10° N
Cosmos 2315 Rocket 4.2 20:06:14 10° S 20:12:26 58° E 20:18:42 10° NNE
CRYOSAT 2 4.4 20:08:07 10° SSE 20:12:59 70° E 20:17:52 10° N
S3M 4.2 20:06:48 10° S 20:13:12 83° W 20:19:35 10° N
BREEZE-M R/B 2.7 20:11:37 10° SW 20:13:47 26° SSE 20:15:12 16° ESE
Cosmos 1666 4.0 20:11:52 10° N 20:15:04 26° ENE 20:17:20 15° ESE
Cosmos 1666 Rocket 3.6 20:11:13 10° N 20:15:40 87° W 20:19:58 10° S
USA 215 3.9 20:12:04 10° E 20:18:26 57° N 20:24:48 10° WNW
Cosmos 1933 3.5 20:19:27 10° SSW 20:23:29 74° W 20:27:32 10° N
USA 305 3.0 20:20:18 10° WNW 20:24:35 75° NNE 20:28:37 11° E
USA 245 2.0 20:23:49 20° S 20:25:12 71° WSW 20:27:27 10° NNW
Iridium 4 Rocket 4.4 20:22:02 15° SE 20:26:20 39° E 20:31:46 10° NNE
Cosmos 1242 Rocket 2.6 20:25:27 10° SSW 20:29:02 76° WNW 20:32:36 10° N
Cosmos 773 Rocket 4.0 20:27:31 10° NNW 20:32:52 87° WSW 20:37:01 17° SSE
BREEZE M DEB (TANK) 2.0 20:28:13 10° W 20:32:55 53° SSW 20:34:07 25° SE
Cosmos 1437 Rocket 4.4 20:29:34 10° SW 20:33:09 35° WNW 20:36:50 10° N
Resurs 01 Rocket 3.1 20:31:10 10° SSW 20:35:12 33° W 20:39:16 10° NNW
Spot 2 Rocket 3.6 20:34:12 14° S 20:38:37 77° WSW 20:43:41 10° NNW
COSMOS 2406 3.3 20:33:54 10° NNW 20:39:36 75° ENE 20:43:43 19° SE
SJ 16-02 2.6 20:38:19 19° SE 20:39:50 23° E 20:43:22 10° NE
Cosmos 2228 Rocket 4.4 20:40:06 18° ESE 20:41:52 23° E 20:45:23 10° NE
Cosmos 2082 Rocket 2.8 20:36:55 10° NNW 20:42:22 47° NE 20:46:28 17° ESE
USA 306 2.9 20:39:26 10° WNW 20:43:43 84° NNE 20:47:01 17° ESE
Cosmos 1500 3.1 20:40:54 10° NNW 20:44:41 81° W 20:47:10 20° S
CZ-4C R/B 3.0 20:37:55 10° NW 20:44:56 86° SW 20:51:18 19° SE
Meteor 2-6 Rocket 4.4 20:41:14 17° SSE 20:45:11 49° E 20:50:29 10° NNE
Cosmos 1782 3.0 20:43:34 10° SSW 20:47:34 73° WNW 20:51:35 10° N
Gbstr 26 Del rocket 4.3 20:39:56 10° W 20:47:46 89° N 20:54:23 10° E
deb Kosmos-1763 4.1 20:50:11 10° NNW 20:53:43 62° ENE 20:55:19 29° SE
ERS-1 Rocket 3.0 20:50:52 19° SSE 20:54:32 83° WSW 20:59:36 10° NNW
H-2A R/B 3.9 20:51:51 10° NNE 20:55:52 43° E 20:57:49 26° SSE
SPOT 5 3.1 20:52:52 19° SSE 20:56:32 82° WSW 21:01:50 10° NNW
Cosmos 1503 Rocket 4.4 20:52:41 10° SW 20:57:49 65° WNW 21:03:02 10° NNE
Meteor 1-11 Rocket 4.1 20:53:04 10° N 20:58:59 58° ENE 21:02:44 23° SE
ERBS 4.1 20:57:00 10° WNW 21:00:00 31° N 21:03:01 10° ENE
SOZ 4.1 20:58:36 10° WSW 21:00:54 84° SSE 21:03:12 12° E
Cosmos 1271 Rocket 3.4 21:00:22 28° SE 21:01:53 40° E 21:05:39 10° NNE
Cosmos 1151 Rocket 3.7 20:58:49 10° SSW 21:03:04 54° WNW 21:07:24 10° N
Cosmos 1777 Rocket 4.0 20:58:39 13° S 21:03:20 66° ESE 21:08:31 10° NNE
CREW DRAGON DEMO-1 DEB 2.4 21:01:42 10° W 21:04:20 64° SSW 21:04:38 57° SSE
Terra 1.8 21:02:22 24° SSE 21:05:19 89° ENE 21:10:07 10° NNW
USA 307 2.8 21:04:45 10° WNW 21:09:03 82° SSW 21:11:26 26° ESE
Cosmos 2278 Rocket 2.4 21:05:44 17° S 21:09:55 53° ESE 21:15:25 10° NE
Cosmos 1340 Rocket 4.0 21:08:49 10° N 21:12:30 31° ENE 21:14:05 23° ESE
Cosmos 923 Rocket 4.4 21:07:23 10° NNW 21:12:34 56° ENE 21:15:32 25° SE
CZ-4B DEB 4.5 21:16:05 36° S 21:17:13 65° WSW 21:20:27 10° NNW
Cosmos 1544 3.9 21:16:37 10° N 21:19:58 36° ENE 21:20:56 30° ESE
Cosmos 1515 Rocket 3.7 21:17:35 19° SSW 21:20:45 75° WNW 21:25:10 10° N
X-37B 3.0 21:19:19 10° WSW 21:20:09 13° SW 21:20:09 13° SW
Cosmos 1869 Rocket 3.6 21:17:47 10° N 21:22:07 65° ENE 21:23:54 33° SSE
Cosmos 1536 3.1 21:18:20 10° N 21:22:21 56° ENE 21:23:48 35° SE
USA 308 2.8 21:18:14 10° WNW 21:22:31 72° SSW 21:24:24 32° SE
Cosmos 1844 Rocket 4.4 21:17:32 10° WSW 21:22:36 35° NW 21:27:44 10° NNE
Cosmos 2084 3.3 21:18:32 10° SW 21:22:40 70° SE 21:26:56 10° NE
ARIANE 5 R/B 4.1 21:20:39 13° SSW 21:23:50 30° W 21:27:42 10° NNW
Meteor 1-10 Rocket 4.1 21:22:59 22° S 21:26:42 79° E 21:32:23 10° NNE
Cosmos 1437 4.3 21:25:46 14° SW 21:27:43 28° WNW 21:30:16 10° N
Cosmos 2154 Rocket 4.0 21:22:58 10° N 21:29:22 82° E 21:33:02 27° SSE
Cosmos 1943 Rocket 3.8 21:30:25 17° ESE 21:31:07 17° E 21:34:38 10° ENE
Cosmos 1812 3.5 21:31:31 18° SW 21:34:09 48° WNW 21:37:56 10° N
Cosmos 2184 Rocket 4.2 21:31:09 10° NNW 21:37:20 66° W 21:41:19 23° S
Cosmos 44 4.0 21:33:39 10° NW 21:39:04 57° NE 21:42:24 22° ESE
ALOS 2 4.0 21:38:42 21° ESE 21:40:33 28° ENE 21:44:20 10° N
NOSS 3-4 (A) 3.8 21:35:47 10° NW 21:42:38 74° SW 21:47:02 28° SSE
NOSS 3-4 (C) 3.8 21:35:53 10° NW 21:42:45 74° SW 21:47:09 28° SSE
ATLAS 5 CENTAUR R/B 4.1 21:39:38 10° WNW 21:43:49 21° WSW 21:47:13 14° SSW
Cosmos 1707 Rocket 4.2 21:42:54 34° SE 21:43:55 39° E 21:48:01 10° NNE
Cosmos 2074 Rocket 4.5 21:39:06 10° NNW 21:45:15 57° W 21:49:22 21° SSW
Cosmos 1666 4.2 21:47:21 10° NNW 21:50:37 29° W 21:52:11 21° SW
Cosmos 2112 Rocket 4.1 21:46:04 10° NNW 21:51:26 74° ENE 21:53:50 34° SE
Cosmos 1833 Rocket 3.7 21:47:49 10° NW 21:52:57 36° WSW 21:55:42 23° SSW
NOSS 3-3 (A) 4.2 21:47:54 10° SW 21:53:49 73° NW 22:00:44 10° NE
NOSS 3-3 (C) 4.2 21:48:00 10° SW 21:53:56 73° NW 22:00:49 10° NE
SL-24 R/B - RUBIN 2 4.2 21:48:19 10° NW 21:54:02 71° NE 21:56:38 29° ESE
Cosmos 1238 Rocket 4.2 21:48:43 10° N 21:55:06 58° ENE 21:57:52 31° SE
Nadezhda 1 Rocket 4.0 21:51:52 25° S 21:55:47 87° WNW 22:02:05 10° N
Cosmos 1743 2.7 21:52:13 10° N 21:56:04 70° ENE 21:56:52 52° SE
ATLAS 2AS CENTAUR R/B 2.8 21:48:52 10° NW 21:56:25 89° NE 22:00:32 27° SE
SeaSat 1 4.5 21:56:29 10° ENE 21:58:33 13° E 21:58:33 13° E
USA 215 3.3 21:55:02 12° ESE 22:01:11 80° NNE 22:07:44 10° WNW
BREEZE-M DEB (TANK) 2.8 21:56:39 10° W 22:03:17 78° N 22:04:40 27° E
USA 305 3.3 22:00:22 10° WNW 22:04:24 42° SW 22:04:41 42° SSW
Cosmos 2297 4.3 22:03:57 33° SE 22:05:25 39° ESE 22:10:40 10° NE
Cosmos 2181 Rocket 4.3 22:07:22 32° SE 22:09:52 50° E 22:15:46 10° NNE
Cosmos 1733 Rocket 3.0 22:10:38 10° N 22:15:00 77° E 22:16:02 50° SSE
SJ 16-02 2.2 22:15:15 19° SW 22:18:08 49° WNW 22:22:28 10° NNE
Cosmos 1680 Rocket 3.7 22:14:20 10° NNW 22:19:35 62° WSW 22:21:27 39° S
Cosmos 2228 Rocket 4.0 22:17:34 24° SW 22:19:48 45° WNW 22:24:07 10° N
Cosmos 2341 Rocket 4.0 22:13:43 10° NNW 22:20:09 83° W 22:23:08 34° S
Cosmos 2366 rocket 4.0 22:15:12 10° N 22:21:23 69° ENE 22:24:07 35° SSE
Meteor 1-27 Rocket 4.1 22:18:37 25° SSW 22:22:07 65° WNW 22:28:02 10° N
USA 306 3.8 22:19:34 10° WNW 22:23:05 33° SW 22:23:05 33° SW
Cosmos 1818 3.6 22:19:36 10° NW 22:25:08 79° NE 22:27:40 33° SE
Cosmos 1937 Rocket 3.7 22:24:06 41° SSE 22:25:19 50° ESE 22:30:19 10° NNE
Cosmos 2082 Rocket 3.0 22:21:14 10° NW 22:26:22 37° WSW 22:28:19 29° SSW
Cosmos 1908 Rocket 4.4 22:22:23 10° N 22:26:40 42° ENE 22:27:56 34° ESE
CZ-4C R/B 4.2 22:27:02 10° WNW 22:33:05 28° WSW 22:36:28 21° SSW
Gbstr 26 Del rocket 3.9 22:27:52 10° WNW 22:35:13 79° SSW 22:40:00 17° ESE
ERBS 2.7 22:33:16 10° WNW 22:36:33 58° NNE 22:37:04 50° ENE
Cosmos 2218 Rocket 4.0 22:33:07 10° N 22:39:24 89° W 22:42:06 37° S
Meteor 1-19 Rocket 4.1 22:40:49 43° S 22:42:36 73° E 22:48:00 10° NNE
Terra 4.1 22:41:15 10° WSW 22:43:45 14° W 22:46:16 10° NW
Cosmos 489 Rocket 4.4 22:40:30 10° NNW 22:46:46 84° WSW 22:49:22 38° SSE
Okean 1 3.3 22:46:34 60° SSW 22:47:12 78° W 22:51:14 10° N
USA 307 4.5 22:45:05 10° W 22:47:31 22° WSW 22:47:31 22° WSW
Cosmos 1340 Rocket 4.1 22:45:19 10° NNW 22:48:53 29° W 22:49:40 27° WSW
Cosmos 1461 4.1 22:53:28 32° ESE 22:53:28 32° ESE 22:57:25 10° ENE
Cosmos 2278 Rocket 3.6 22:49:03 10° WSW 22:54:15 36° NW 22:59:29 10° NNE
Cosmos 1515 4.1 22:55:28 46° WSW 22:56:03 51° WNW 22:59:47 10° N
Cosmos 1862 Rocket 3.6 22:57:00 52° SW 22:57:57 72° WNW 23:02:17 10° N
Cosmos 1703 Rocket 4.1 22:57:18 41° ESE 22:57:57 44° E 23:02:09 10° NNE
Cosmos 1782 Rocket 4.2 22:53:45 10° N 22:58:06 48° ENE 22:59:17 38° ESE
Cosmos 1898 Rocket 3.7 22:57:38 33° SW 23:00:03 70° WNW 23:05:24 10° NNE
MTI 4.1 22:58:57 10° NNE 23:01:27 58° NNE 23:01:27 58° NNE
Nadezhda 3 Rocket 4.5 23:02:11 32° SE 23:04:39 49° E 23:10:36 10° NNE
Cosmos 2369 Rocket 2.6 23:03:27 38° SE 23:04:47 45° ESE 23:10:08 10° NE
RESURS DK-1 3.0 23:04:20 10° NNW 23:08:26 50° NE 23:09:53 34° ESE
COBE Rocket 4.0 23:07:04 46° SSW 23:08:28 68° W 23:13:37 10° NNW
Gblst 52 Del rocket 4.3 23:02:58 10° WNW 23:09:46 71° SSW 23:14:42 16° ESE
Cosmos 1975 3.1 23:07:58 10° NNW 23:11:51 51° W 23:12:12 49° WSW
SL-27 R/B 3.5 23:09:45 10° N 23:12:51 35° ENE 23:13:17 34° E
Cosmos 2084 Rocket 3.7 23:09:11 10° NW 23:13:19 50° SW 23:13:19 50° SW
Cosmos 1943 Rocket 2.1 23:11:55 40° SSW 23:14:05 87° ESE 23:19:44 10° NNE
SAR-Lupe-2 3.6 23:10:42 10° N 23:14:16 66° WNW 23:14:31 64° W
ALOS 2 3.3 23:16:05 37° WSW 23:16:46 40° W 23:20:56 10° NNW
SL-08 R/B 4.4 23:10:55 10° NNW 23:17:07 82° W 23:19:37 39° S
PSLV R/B 4.2 23:13:29 10° NNE 23:17:44 41° E 23:18:26 38° ESE
Cosmos 1867 4.5 23:18:57 30° SE 23:19:40 32° ESE 23:24:27 10° NE
Cosmos 44 4.2 23:15:16 10° NW 23:20:10 35° WSW 23:20:48 34° SW
Cosmos 468 4.5 23:16:34 10° NNW 23:21:54 82° ENE 23:23:51 40° SSE
DNEPR-1 R/B 3.9 23:19:56 40° SSW 23:22:00 79° SE 23:26:52 10° NE
Meteor 2-4 Rocket 3.7 23:20:31 42° S 23:22:37 89° ESE 23:28:19 10° NNE
EO 1 Del DPAF 3.8 23:23:54 10° NNE 23:27:30 43° E 23:27:38 43° ESE
Okean 3 4.0 23:28:08 42° SE 23:28:50 47° E 23:32:56 10° NNE
Okean 1-7 2.9 23:30:16 62° S 23:30:57 88° ESE 23:35:16 10° N
Cosmos 372 Rocket 3.9 23:30:36 44° SSW 23:32:14 84° WNW 23:37:22 10° NNE
ATLAS CENTAUR R/B 3.2 23:33:01 16° E 23:33:01 16° E 23:34:47 10° ENE
Helios 1A 4.0 23:31:38 28° ESE 23:33:13 40° ENE 23:37:07 10° N
Sich 1 Rocket 4.1 23:29:36 10° N 23:34:09 56° ENE 23:35:34 39° SE
SeaSat 1 2.4 23:32:00 10° NE 23:36:57 71° ESE 23:38:19 47° S
Cosmos 1125 Rocket 4.2 23:35:51 35° SE 23:37:11 42° ESE 23:42:06 10° NE
Cosmos 494 Rocket 3.9 23:33:01 10° NNW 23:38:16 84° ENE 23:40:13 39° SSE
Cosmos 1656 Rocket 3.9 23:39:04 40° SSE 23:40:35 53° ESE 23:45:58 10° NE
Cosmos 2242 Rocket 3.7 23:40:22 51° SW 23:41:20 68° WNW 23:45:47 10° N
Cosmos 2239 Rocket 4.5 23:35:51 10° N 23:42:10 84° W 23:44:52 37° S
USA 215 3.5 23:42:20 35° S 23:44:32 47° SW 23:50:48 10° WNW
Cosmos 1833 4.1 23:39:23 10° NNW 23:45:10 79° WSW 23:47:33 37° SSE
ATLAS 2AS CENTAUR R/B 3.8 23:40:42 10° WNW 23:46:29 26° WSW 23:47:57 24° SW
CZ-2D R/B 4.0 23:47:00 10° NE 23:51:02 21° E 23:53:55 14° SE
Cosmos 2297 Rocket 4.3 23:46:54 10° NNW 23:51:37 26° NE 23:56:20 10° E
SJ 16-02 4.3 23:57:01 10° NW 23:57:51 10° NW 23:58:42 10° NNW
